Location: Davayat
(45.9471°N, 3.1105°E)
Time: 18:14:02
(UTC+00:00)

Cosmos 1934 Rocket - Pass Details

Date: 01 December 2020
Orbit: 937 x 1000 km, 83.0° (Epoch: 17 January)

Event Time Altitude Azimuth Distance (km) Brightness Sun altitude
Rises 18:58:31 0° 349° (NNW) 3,733 7.2 -29.6°
Reaches altitude 10° 19:01:05 10° 347° (NNW) 2,776 6.5 -30.0°
Maximum altitude 19:07:24 67° 266° (W) 1,074 4.3 -31.1°
Drops below altitude 10° 19:13:35 10° 186° (S) 2,727 6.4 -32.2°
Sets 19:16:05 0° 183° (S) 3,662 7.0 -32.6°
